Tracking 28790 objects as of 19-Apr-2024
HD Live streaming from Space Station
objects crossing your sky now

ARIANE 2 DEB

Track ARIANE 2 DEB now!


NORAD ID: 27595
Int'l Code: 1988-040E
Perigee: 511.2 km
Apogee: 35,369.8 km
Inclination: 7.6 °
Period: 628.7 minutes
Semi major axis: 24311 km
RCS: 8.9719 m2 (large)
Launch date: May 17, 1988
Source: France (FR)
Launch site: FRENCH GUIANA (FRGUI)

Note: This is SATELLITE DEBRIS
Your satellite tracking list
Your tracking list is empty




NASA's NSSDC Master Catalog

Two Line Element Set (TLE):
1 27595U 88040E   24109.47860972  .00000121  00000-0  13433-2 0  9997
2 27595   7.5798 305.2149 7169152 199.1495 105.4889  2.29026299181500
Source of the keplerian elements: AFSPC